Tracking 20066 objects as of 7-Dec-2019
HD Live streaming from Space Station
objects crossing your sky now

MSG 4 DEB (BAFFLE COVER)

Track MSG 4 DEB (BAFFLE COVER) now!


NORAD ID: 40990
Int'l Code: 2015-034F
Perigee: 34,782.2 km
Apogee: 35,496.2 km
Inclination: 1.5 °
Period: 1,402.8 minutes
Semi major axis: 41510 km
RCS: Unknown
Launch date: July 15, 2015
Source: European Organisation for the Exploitation of Meteorological Satellites (EUME)
Launch site: FRENCH GUIANA (FRGUI)

Note: This is SATELLITE DEBRIS
aabbcc
Your satellite tracking list
Your tracking list is empty




NASA's NSSDC Master Catalog

Two Line Element Set (TLE):
1 40990U 15034F   19337.33421277 -.00000032  00000-0  00000+0 0  9992
2 40990   1.4762 153.4289 0086012  84.6560 276.4356  1.02652779 16360
Source of the keplerian elements: AFSPC